Regional Weather Roundup
Issued by NWS State College, PA

Home | Current Version | Previous Version | Text Only | Print | Product List | Glossary On
Versions: 1 2 3 4 5 6 7 8 9 10 11 12 13 14 15 16 17 18 19 20 21 22 23 24 25 26 27 28 29 30 31 32 33 34 35 36 37 38 39 40 41 42 43 44 45 46 47 48 49 50
000
ASUS41 KCTP 010310
RWRCTP

REGIONAL WEATHER ROUNDUP
NATIONAL WEATHER SERVICE STATE COLLEGE PA
1000 PM EST SAT JAN 31 2015

Note: "fair" indicates few or no clouds below 12,000 feet with no
significant weather and/or obstructions to visibility.

* = STATION THAT DOES NOT REPORT PRECIPITATION /E.G. RAIN...SNOW...ETC/
    THUNDER OR FOG.

PAZ002>004-007>009-013>016-020>023-029>032-010400-
WESTERN PENNSYLVANIA

CITY           SKY/WX    TMP DP  RH WIND       PRES   REMARKS
ERIE           CLOUDY    27  16  63 S10       30.19F
MEADVILLE      CLOUDY    24  15  68 SW7       30.16F
FRANKLIN*      CLOUDY    21  12  68 SW5       30.18S WCI  15
NEW CASTLE     CLOUDY    25  16  68 CALM      30.22S
BEAVER COUNTY  NOT AVBL
BUTLER*        CLOUDY    23  16  74 S3        30.22S
PITTSBURGH INT CLOUDY    27  16  63 SW7       30.21F
PITTSBURGH     CLOUDY    26  13  57 SW10      30.20F
INDIANA*       CLOUDY    12  10  92 CALM      30.23F
LATROBE        PTCLDY    18  10  73 SW7       30.24F WCI   8
WASHINGTON CO* CLOUDY    19  16  86 SW6       30.23F WCI  11
$$

PAZ004>006-010>012-017>019-024>028-033>037-041-042-045-046-049>053-010400-
CENTRAL PENNSYLVANIA

CITY           SKY/WX    TMP DP  RH WIND       PRES   REMARKS
BRADFORD       CLOUDY    19  11  70 W6        30.10F WCI  11
DUBOIS         PTCLDY    16  10  77 SW7       30.14F WCI   6
CLEARFIELD     PTCLDY    14   8  77 SW5       30.17F WCI   6
JOHNSTOWN      PTCLDY    20  11  68 W15       30.11F WCI   6
ALTOONA        CLEAR     20   9  62 S7        30.18F WCI  11
STATE COLLEGE  PTCLDY    20  11  68 W7        30.19F WCI  11
WILLIAMSPORT   CLEAR     17   6  62 NW5       30.21F WCI  10
SELINSGROVE    PTCLDY     9   4  80 CALM      30.23F
FT INDIANTOWN  CLEAR     25   8  50 W6        30.22F
CAPITAL CITY   CLEAR     17   8  67 CALM      30.24F
HARRISBURG     CLEAR     13   7  77 CALM      30.24F
YORK           CLEAR      8   4  83 CALM      30.23F
$$

PAZ038>040-043-044-047-048-054-055-060>062-067>071-010400-
EASTERN PENNSYLVANIA

CITY           SKY/WX    TMP DP  RH WIND       PRES   REMARKS
SCRANTON       PTCLDY    12   3  67 CALM      30.16F
MOUNT POCONO   CLEAR     12   3  67 NW8       30.07S WCI   0
ALLENTOWN      CLEAR     15   4  61 CALM      30.20F
QUAKERTOWN*    CLEAR     19   7  58 W3        30.20F
READING        CLEAR     21   7  54 W6        30.22S WCI  13
LANCASTER      CLEAR     20   5  52 W5        30.23S WCI  13
COATESVILLE    CLEAR     23   9  54 CALM      30.22S
POTTSTOWN      CLEAR     20   6  55 CALM      30.23S
BLUE BELL      CLEAR     25  10  54 CALM      30.22S
DOYLESTOWN     CLEAR     18   7  62 W3        30.20F
WILLOW GROVE   NOT AVBL
NORTH PHILA    CLEAR     25   7  46 W9        30.25F
PHILADELPHIA   CLEAR     23   8  52 W8        30.26S WCI  14
$$


USA.gov is the U.S. government's official web portal to all federal, state and local government web resources and services.